Regional Weather Roundup
Issued by NWS

Home | Current Version | Previous Version | Graphics & Text | Print | Product List | Glossary On
Versions: 1 2 3 4 5 6 7 8 9 10 11 12 13 14 15 16 17 18 19 20 21 22 23 24 25 26 27 28 29 30 31 32 33 34 35 36 37 38 39 40 41 42 43 44 45 46 47 48 49 50
000
ASUS43 KBIS 200720
RWRND

NORTH DAKOTA REGIONAL WEATHER ROUNDUP
NATIONAL WEATHER SERVICE BISMARCK ND
200 AM CDT SAT SEP 20 2014

NOTE: "FAIR" INDICATES FEW OR NO CLOUDS BELOW 12,000 FEET WITH NO
SIGNIFICANT WEATHER AND/OR OBSTRUCTIONS TO VISIBILITY.


NDZ001>003-009>011-017-200800-
NORTHWEST NORTH DAKOTA

CITY           SKY/WX    TMP DP  RH WIND       PRES   REMARKS
WILLISTON      CLEAR     53  48  83 SW6       29.86R
MINOT          CLEAR     56  51  84 W8        29.80R
MINOT AFB      CLEAR     53  53  99 W8        29.80R
$$

NDZ018>021-031>035-040>046-200800-
SOUTHWEST NORTH DAKOTA

CITY           SKY/WX    TMP DP  RH WIND       PRES   REMARKS
BISMARCK       CLEAR     53  50  89 CALM      29.84R
DICKINSON      CLEAR     52  46  80 W10       29.87R
GARRISON         N/A     56  52  86 W10       29.82R
HETTINGER ARPT CLEAR     51  45  79 W7        29.92R
$$

NDZ004>008-012>016-024-026-027-054-200800-
NORTHEAST NORTH DAKOTA

CITY           SKY/WX    TMP DP  RH WIND       PRES   REMARKS
GRAND FORKS    CLOUDY    57  53  86 NW8       29.73R
GRND FRKS AFB  CLEAR     54  53  99 NW5       29.75R
DEVILS LAKE    CLEAR     52  46  82 W3        29.76R
$$

NDZ022-023-025-028>030-036>039-047>053-200800-
SOUTHEAST NORTH DAKOTA

CITY           SKY/WX    TMP DP  RH WIND       PRES   REMARKS
FARGO          CLEAR     59  54  83 N12       29.73R
JAMESTOWN      PTCLDY    58  56  93 NW8       29.78R
$$



USA.gov is the U.S. government's official web portal to all federal, state and local government web resources and services.